SWA799 KBNA-KATL

Flight info

Callsign SWA799
Flight time 0h 40m
Altitude 23000
Route TIPPN4 DENST CHPPR CHPPR1
Aircraft B737/M-SDE2E3FGHIRWXY/LB1

Departure

Time 2026-05-03 20:54
Airport Nashville International Airport (KBNA)

Arrival

Time 2026-05-03 21:34
Airport Hartsfield Jackson Atlanta International Airport (KATL)
Time Latitude Longitude Altitude Speed Heading
2026-05-03 20:38 36.12801 -86.66856 568 ft 0 kts 272°
2026-05-03 20:38 36.12801 -86.66851 568 ft 0 kts 271°
2026-05-03 20:45 36.12801 -86.66828 569 ft 4 kts 254°
2026-05-03 20:45 36.12815 -86.66803 571 ft 4 kts 201°
2026-05-03 20:46 36.12838 -86.66803 568 ft 4 kts 143°
2026-05-03 20:46 36.12844 -86.66809 570 ft 0 kts 131°
2026-05-03 20:48 36.12816 -86.66787 573 ft 8 kts 158°
2026-05-03 20:48 36.12753 -86.66796 568 ft 10 kts 211°
2026-05-03 20:48 36.12698 -86.66854 570 ft 10 kts 221°
2026-05-03 20:49 36.12655 -86.66920 569 ft 10 kts 266°
2026-05-03 20:49 36.12698 -86.67002 568 ft 13 kts 310°
2026-05-03 20:49 36.12763 -86.67098 570 ft 16 kts 310°
2026-05-03 20:49 36.12833 -86.67196 571 ft 13 kts 313°
2026-05-03 20:50 36.12856 -86.67269 569 ft 10 kts 237°
2026-05-03 20:50 36.12809 -86.67326 574 ft 9 kts 223°
2026-05-03 20:50 36.12761 -86.67380 575 ft 9 kts 223°
2026-05-03 20:50 36.12709 -86.67436 574 ft 11 kts 213°
2026-05-03 20:51 36.12637 -86.67485 575 ft 13 kts 208°
2026-05-03 20:51 36.12557 -86.67558 576 ft 15 kts 223°
2026-05-03 20:51 36.12480 -86.67647 584 ft 15 kts 221°
2026-05-03 20:51 36.12384 -86.67698 580 ft 15 kts 198°
2026-05-03 20:52 36.12363 -86.67781 577 ft 12 kts 287°
2026-05-03 20:52 36.12384 -86.67857 580 ft 5 kts 288°
2026-05-03 20:52 36.12386 -86.67866 579 ft 0 kts 288°
2026-05-03 20:53 36.12386 -86.67867 575 ft 1 kts 288°
2026-05-03 20:53 36.12403 -86.67931 577 ft 10 kts 281°
2026-05-03 20:53 36.12360 -86.67986 575 ft 13 kts 198°
2026-05-03 20:53 36.12054 -86.68109 575 ft 82 kts 198°
2026-05-03 20:54 36.11300 -86.68412 577 ft 142 kts 198°
2026-05-03 20:54 36.09303 -86.69122 1883 ft 153 kts 198°
2026-05-03 20:54 36.08260 -86.69514 2534 ft 163 kts 199°
2026-05-03 20:55 36.07077 -86.69979 2880 ft 193 kts 200°
2026-05-03 20:55 36.05721 -86.70490 3120 ft 219 kts 198°
2026-05-03 20:55 36.04163 -86.71065 3466 ft 247 kts 199°
2026-05-03 20:55 36.02492 -86.71741 4260 ft 256 kts 201°
2026-05-03 20:56 36.00790 -86.72420 5191 ft 258 kts 199°
2026-05-03 20:56 35.99032 -86.73074 5935 ft 268 kts 200°
2026-05-03 20:56 35.97228 -86.73751 6775 ft 274 kts 201°
2026-05-03 20:56 35.95341 -86.74279 7578 ft 285 kts 183°
2026-05-03 20:57 35.93410 -86.73789 8471 ft 293 kts 156°
2026-05-03 20:57 35.91629 -86.72501 9375 ft 299 kts 147°
2026-05-03 20:57 35.89885 -86.71054 10262 ft 305 kts 146°
2026-05-03 20:57 35.88078 -86.69520 10625 ft 329 kts 146°
2026-05-03 20:58 35.86109 -86.67853 10955 ft 352 kts 146°
2026-05-03 20:58 35.84062 -86.66136 11691 ft 360 kts 146°
2026-05-03 20:58 35.81967 -86.64393 12535 ft 365 kts 147°
2026-05-03 20:58 35.79875 -86.62664 13373 ft 369 kts 147°
2026-05-03 20:59 35.77721 -86.60890 14180 ft 375 kts 147°
2026-05-03 20:59 35.75532 -86.59094 14968 ft 380 kts 147°
2026-05-03 20:59 35.73319 -86.57279 15786 ft 385 kts 147°
2026-05-03 20:59 35.71076 -86.55441 16595 ft 390 kts 148°
2026-05-03 21:00 35.68802 -86.53579 17383 ft 395 kts 148°
2026-05-03 21:00 35.68057 -86.52969 17639 ft 397 kts 148°
2026-05-03 21:00 35.64180 -86.49797 18858 ft 406 kts 148°
2026-05-03 21:00 35.61820 -86.47868 19579 ft 409 kts 149°
2026-05-03 21:01 35.59410 -86.45985 20296 ft 411 kts 155°
2026-05-03 21:01 35.56727 -86.44819 20994 ft 409 kts 169°
2026-05-03 21:01 35.53962 -86.43983 21742 ft 411 kts 170°
2026-05-03 21:01 35.51179 -86.43156 22561 ft 411 kts 171°
2026-05-03 21:02 35.48398 -86.42325 22986 ft 409 kts 170°
2026-05-03 21:02 35.45673 -86.41483 23138 ft 409 kts 170°
2026-05-03 21:02 35.42900 -86.40608 23130 ft 409 kts 169°
2026-05-03 21:02 35.40154 -86.39722 23145 ft 409 kts 167°
2026-05-03 21:03 35.37554 -86.38214 23140 ft 418 kts 147°
2026-05-03 21:03 35.35310 -86.35947 23159 ft 419 kts 141°
2026-05-03 21:03 35.33127 -86.33559 23155 ft 420 kts 140°
2026-05-03 21:03 35.30966 -86.31152 23160 ft 420 kts 140°
2026-05-03 21:04 35.28797 -86.28742 23151 ft 420 kts 140°
2026-05-03 21:04 35.26629 -86.26350 23157 ft 420 kts 141°
2026-05-03 21:04 35.24453 -86.23972 23141 ft 420 kts 141°
2026-05-03 21:04 35.22263 -86.21593 23137 ft 420 kts 141°
2026-05-03 21:05 35.20076 -86.19228 23140 ft 420 kts 141°
2026-05-03 21:05 35.17915 -86.16898 23131 ft 420 kts 141°
2026-05-03 21:05 35.15697 -86.14508 23135 ft 419 kts 141°
2026-05-03 21:05 35.13538 -86.12185 23136 ft 419 kts 141°
2026-05-03 21:06 35.11351 -86.09832 23130 ft 419 kts 141°
2026-05-03 21:06 35.09161 -86.07478 23135 ft 418 kts 141°
2026-05-03 21:06 35.06974 -86.05129 23138 ft 418 kts 141°
2026-05-03 21:06 35.04789 -86.02783 23134 ft 418 kts 141°
2026-05-03 21:07 35.02603 -86.00438 23136 ft 417 kts 141°
2026-05-03 21:07 35.00426 -85.98105 23152 ft 417 kts 141°
2026-05-03 21:07 34.98240 -85.95764 23144 ft 418 kts 141°
2026-05-03 21:07 34.96049 -85.93418 23160 ft 425 kts 141°
2026-05-03 21:08 34.93782 -85.90998 23177 ft 441 kts 141°
2026-05-03 21:08 34.91438 -85.88496 23166 ft 455 kts 141°
2026-05-03 21:08 34.89025 -85.85920 23167 ft 465 kts 141°
2026-05-03 21:08 34.86618 -85.83348 23148 ft 465 kts 141°
2026-05-03 21:09 34.84186 -85.80749 23148 ft 464 kts 141°
2026-05-03 21:09 34.81758 -85.78160 23150 ft 465 kts 141°
2026-05-03 21:09 34.79327 -85.75571 23144 ft 465 kts 141°
2026-05-03 21:09 34.76891 -85.72970 23139 ft 466 kts 140°
2026-05-03 21:10 34.74529 -85.70251 23148 ft 466 kts 137°
2026-05-03 21:10 34.72236 -85.67443 23141 ft 467 kts 136°
2026-05-03 21:10 34.70005 -85.64644 23152 ft 466 kts 136°
2026-05-03 21:10 34.67757 -85.61818 23146 ft 466 kts 136°
2026-05-03 21:11 34.65493 -85.58989 23142 ft 465 kts 136°
2026-05-03 21:11 34.63229 -85.56184 23150 ft 464 kts 136°
2026-05-03 21:11 34.60959 -85.53390 23141 ft 464 kts 137°
2026-05-03 21:11 34.58688 -85.50608 23135 ft 460 kts 137°
2026-05-03 21:12 34.56479 -85.47905 23113 ft 441 kts 137°
2026-05-03 21:12 34.54359 -85.45314 23114 ft 425 kts 137°
2026-05-03 21:12 34.52301 -85.42803 23126 ft 421 kts 137°
2026-05-03 21:12 34.50202 -85.40251 23146 ft 433 kts 137°
2026-05-03 21:13 34.48058 -85.37646 23135 ft 435 kts 137°
2026-05-03 21:13 34.45931 -85.35058 23114 ft 429 kts 137°
2026-05-03 21:13 34.43863 -85.32539 23104 ft 414 kts 137°
2026-05-03 21:13 34.41895 -85.30143 23092 ft 396 kts 137°
2026-05-03 21:14 34.39992 -85.27827 23096 ft 379 kts 137°
2026-05-03 21:14 34.38167 -85.25610 23097 ft 364 kts 137°
2026-05-03 21:14 34.36413 -85.23481 23098 ft 349 kts 138°
2026-05-03 21:14 34.34732 -85.21442 23099 ft 335 kts 138°
2026-05-03 21:15 34.33114 -85.19482 22979 ft 325 kts 138°
2026-05-03 21:15 34.31484 -85.17514 22087 ft 340 kts 138°
2026-05-03 21:15 34.29745 -85.15421 20894 ft 364 kts 137°
2026-05-03 21:15 34.28532 -85.13960 20132 ft 378 kts 137°
2026-05-03 21:16 34.26624 -85.11657 19270 ft 394 kts 137°
2026-05-03 21:16 34.24662 -85.09285 18445 ft 403 kts 137°
2026-05-03 21:16 34.22677 -85.06884 17797 ft 401 kts 137°
2026-05-03 21:16 34.20724 -85.04521 17317 ft 394 kts 137°
2026-05-03 21:17 34.18802 -85.02200 16806 ft 389 kts 137°
2026-05-03 21:17 34.16892 -84.99898 16227 ft 385 kts 136°
2026-05-03 21:17 34.15001 -84.97624 15666 ft 382 kts 136°
2026-05-03 21:17 34.13119 -84.95522 15146 ft 378 kts 142°
2026-05-03 21:18 34.11022 -84.93520 14616 ft 374 kts 144°
2026-05-03 21:18 34.08979 -84.91662 14093 ft 371 kts 144°
2026-05-03 21:18 34.06930 -84.89791 13533 ft 368 kts 144°
2026-05-03 21:18 34.04913 -84.87912 12965 ft 365 kts 143°
2026-05-03 21:19 34.02924 -84.86038 12431 ft 361 kts 143°
2026-05-03 21:19 34.00951 -84.84173 12122 ft 361 kts 143°
2026-05-03 21:19 33.98974 -84.82303 12044 ft 361 kts 143°
2026-05-03 21:19 33.97004 -84.80444 12012 ft 360 kts 143°
2026-05-03 21:20 33.95027 -84.78580 12021 ft 360 kts 143°
2026-05-03 21:20 33.93056 -84.76722 12016 ft 360 kts 143°
2026-05-03 21:20 33.91078 -84.74861 12013 ft 360 kts 143°
2026-05-03 21:20 33.89133 -84.73032 12022 ft 359 kts 143°
2026-05-03 21:21 33.87167 -84.71182 11988 ft 356 kts 143°
2026-05-03 21:21 33.85251 -84.69379 11974 ft 341 kts 143°
2026-05-03 21:21 33.83425 -84.67661 11975 ft 323 kts 143°
2026-05-03 21:21 33.81702 -84.66042 11978 ft 306 kts 143°
2026-05-03 21:22 33.80061 -84.64500 11974 ft 291 kts 143°
2026-05-03 21:22 33.78504 -84.63039 11985 ft 276 kts 143°
2026-05-03 21:22 33.77026 -84.61654 11983 ft 265 kts 144°
2026-05-03 21:22 33.75572 -84.60292 11992 ft 265 kts 144°
2026-05-03 21:23 33.74165 -84.58862 11986 ft 267 kts 130°
2026-05-03 21:23 33.73356 -84.56877 11997 ft 266 kts 101°
2026-05-03 21:23 33.73230 -84.54704 11868 ft 260 kts 88°
2026-05-03 21:23 33.73252 -84.52521 11527 ft 262 kts 88°
2026-05-03 21:24 33.73276 -84.50325 11229 ft 263 kts 88°
2026-05-03 21:24 33.73288 -84.48137 10979 ft 261 kts 88°
2026-05-03 21:24 33.73292 -84.45959 10695 ft 260 kts 89°
2026-05-03 21:24 33.73293 -84.43790 10442 ft 259 kts 88°
2026-05-03 21:25 33.73292 -84.41630 10199 ft 257 kts 88°
2026-05-03 21:25 33.73294 -84.39512 9934 ft 257 kts 88°
2026-05-03 21:25 33.73296 -84.37388 9680 ft 251 kts 88°
2026-05-03 21:25 33.73296 -84.35283 9211 ft 253 kts 88°
2026-05-03 21:26 33.73295 -84.33183 8816 ft 251 kts 88°
2026-05-03 21:26 33.73295 -84.31093 8438 ft 248 kts 88°
2026-05-03 21:26 33.73296 -84.29024 8052 ft 246 kts 88°
2026-05-03 21:26 33.73298 -84.26968 7681 ft 245 kts 88°
2026-05-03 21:27 33.73299 -84.24918 7316 ft 243 kts 88°
2026-05-03 21:27 33.73301 -84.22923 6991 ft 242 kts 89°
2026-05-03 21:27 33.73302 -84.20906 6645 ft 241 kts 88°
2026-05-03 21:27 33.73306 -84.18901 6360 ft 238 kts 88°
2026-05-03 21:28 33.73309 -84.16909 5968 ft 238 kts 88°
2026-05-03 21:28 33.73127 -84.14938 5535 ft 241 kts 111°
2026-05-03 21:28 33.72159 -84.13349 5265 ft 234 kts 145°
2026-05-03 21:28 33.70686 -84.12600 4928 ft 230 kts 171°
2026-05-03 21:29 33.69113 -84.12329 4616 ft 227 kts 184°
2026-05-03 21:29 33.67645 -84.12862 4193 ft 220 kts 218°
2026-05-03 21:29 33.66700 -84.14213 4098 ft 215 kts 242°
2026-05-03 21:29 33.65982 -84.15805 4079 ft 220 kts 244°
2026-05-03 21:30 33.65288 -84.17458 4008 ft 221 kts 251°
2026-05-03 21:30 33.65051 -84.19217 4016 ft 210 kts 267°
2026-05-03 21:30 33.64991 -84.20969 3996 ft 209 kts 270°
2026-05-03 21:30 33.64978 -84.22713 3937 ft 212 kts 270°
2026-05-03 21:31 33.64970 -84.24517 3674 ft 219 kts 271°
2026-05-03 21:31 33.64969 -84.26332 3464 ft 216 kts 270°
2026-05-03 21:31 33.64965 -84.28118 3123 ft 208 kts 271°
2026-05-03 21:31 33.64970 -84.29829 2831 ft 202 kts 271°
2026-05-03 21:32 33.64965 -84.31478 2546 ft 193 kts 271°
2026-05-03 21:32 33.64960 -84.33023 2333 ft 181 kts 270°
2026-05-03 21:32 33.64964 -84.34477 2131 ft 172 kts 271°
2026-05-03 21:32 33.64958 -84.35863 1866 ft 159 kts 270°
2026-05-03 21:33 33.64956 -84.37113 1684 ft 142 kts 271°
2026-05-03 21:33 33.64956 -84.38244 1493 ft 131 kts 270°
2026-05-03 21:33 33.64952 -84.39359 1318 ft 136 kts 269°
2026-05-03 21:33 33.64955 -84.40464 1100 ft 130 kts 268°
2026-05-03 21:34 33.64954 -84.41512 1006 ft 114 kts 269°
2026-05-03 21:34 33.64955 -84.42207 1006 ft 51 kts 270°
2026-05-03 21:34 33.64946 -84.42573 1006 ft 33 kts 262°
2026-05-03 21:34 33.64895 -84.42755 1005 ft 15 kts 242°
2026-05-03 21:35 33.64849 -84.42846 1005 ft 11 kts 234°
2026-05-03 21:35 33.64784 -84.42877 1006 ft 10 kts 180°
2026-05-03 21:35 33.64715 -84.42877 1006 ft 10 kts 180°
2026-05-03 21:35 33.64642 -84.42854 1006 ft 12 kts 152°
2026-05-03 21:36 33.64559 -84.42836 1005 ft 13 kts 216°
2026-05-03 21:36 33.64541 -84.42935 1006 ft 13 kts 267°
2026-05-03 21:36 33.64542 -84.43048 1006 ft 14 kts 270°
2026-05-03 21:36 33.64542 -84.43177 1006 ft 16 kts 270°
2026-05-03 21:37 33.64542 -84.43323 1006 ft 18 kts 269°
2026-05-03 21:37 33.64492 -84.43425 1005 ft 15 kts 186°
2026-05-03 21:37 33.64393 -84.43393 1005 ft 15 kts 179°
2026-05-03 21:37 33.64278 -84.43393 1005 ft 19 kts 180°
2026-05-03 21:38 33.64137 -84.43392 1005 ft 21 kts 180°
2026-05-03 21:38 33.63996 -84.43392 1005 ft 20 kts 180°
2026-05-03 21:38 33.63908 -84.43392 1005 ft 8 kts 179°
2026-05-03 21:38 33.63867 -84.43364 1005 ft 7 kts 102°
2026-05-03 21:39 33.63867 -84.43323 1005 ft 3 kts 89°
2026-05-03 21:39 33.63867 -84.43316 1005 ft 0 kts 89°
2026-05-03 21:40 33.63867 -84.43312 1005 ft 1 kts 89°
2026-05-03 21:40 33.63867 -84.43307 1005 ft 1 kts 89°
2026-05-03 21:40 33.63867 -84.43302 1005 ft 1 kts 89°
2026-05-03 21:41 33.63867 -84.43297 1005 ft 1 kts 89°
2026-05-03 21:41 33.63867 -84.43292 1005 ft 1 kts 89°
2026-05-03 21:41 33.63867 -84.43287 1005 ft 0 kts 89°